Weather WX

World > North America > United States > Ohio

Northwood, Ohio Regional Weather

Lat: 41.61N, Lon: 83.48W
Wx Zone: OHZ006
Warning FLW WEATHER ALERT - (More Info. Click Here) Warning
Feedback

Northwood, OH Regional Weather

Expires:201906190600;;715334
ASUS41 KCLE 190512
RWRCLE
OHIO REGIONAL WEATHER ROUNDUP
NATIONAL WEATHER SERVICE WILMINGTON, OH
100 AM EDT WED JUN 19 2019

NOTE: "FAIR" INDICATES FEW OR NO CLOUDS BELOW 12,000 FEET WITH NO
SIGNIFICANT WEATHER AND/OR OBSTRUCTIONS TO VISIBILITY.


OHZ001>008-015>018-024>027-034-035-043-044-190600-
   NORTHWEST OHIO
  
CITY           SKY/WX    TMP DP  RH WIND       PRES   REMARKS
DEFIANCE       MOCLDY    67  61  81 E3        29.87F                  
FINDLAY        FAIR      68  62  81 E3        29.87S                  
TOLEDO EXPRESS FAIR      64  58  80 CALM      29.87F                  
TOLEDO EXEC    FAIR      63  59  87 SE3       29.88F                  
LIMA           FAIR      66  62  87 E3        29.88S                  
$$
 

SKY/WX - Weather  TMP - Temperature  DP - Dew Point  RH - Relative Humidity
WIND - Wind Direction/Speed PRES - Barometric Pressure VSB - Visibility
WCI - Wind Chill Index E13G22 Wind - East Wind 13 mph/Gusts of 22 mph